Weather History for Preston, MN

Change the Weather History Date:

Tuesday, November 26, 2013

  Actual Average (KRST) Record (KRST)
Temperature  
Mean Temperature 23 °F 28 °F  
Max Temperature 33 °F 35 °F 61 °F (1914)
Min Temperature 13 °F 20 °F -20 °F (1977)
Degree Days  
Heating Degree Days 42 37  
Month to date heating degree days 782  
Since 1 July heating degree days 1518  
Cooling Degree Days 0 0  
Month to date cooling degree days 0  
Year to date cooling degree days 585  
Moisture  
Dew Point 10 °F    
Average Humidity 61    
Maximum Humidity 75    
Minimum Humidity 41    
Precipitation  
Precipitation 0.00 in 0.06 in 0.53 in (1971)
Month to date precipitation 1.68  
Year to date precipitation 31.56  
Snow  
Snow 0.00 in 0.30 in 3.60 in (1971)
Month to date snowfall 4.8  
Since 1 July snowfall 5.6  
Snow Depth -    
Sea Level Pressure  
Sea Level Pressure 30.16 in    
Wind  
Wind Speed 15 mph (NNW)    
Max Wind Speed 26 mph    
Max Gust Speed 34 mph    
Visibility 10 miles    
Events      
T = Trace of Precipitation, MM = Missing Value Source: NWS Daily Summary

Daily Weather History Graph

Daily Weather History Graph

Search for Another Location

Airport:

Trip Planner

Search our weather history database for the weather conditions in past years. The results will help you decide how hot, cold, wet, or windy it might be!

Date:

Astronomy

Nov. 26, 2013 Rise Set
Actual Time 7:16 AM CST 4:35 PM CST
Civil Twilight 6:45 AM CST 5:06 PM CST
Nautical Twilight 6:09 AM CST 5:42 PM CST
Astronomical Twilight 5:35 AM CST 6:16 PM CST
Moon 12:08 AM CST (11/26) 12:53 PM CST (11/26)
Length of Visible Light 10h 21m
Length of Day
9h 18m
Last Quarter, 41% of the Moon is Illuminated
Nov 26
Last Quarter
Dec 2
New
Dec 9
First Quarter
Dec 17
Full
Dec 25
Last Quarter

Hourly Weather History & Observations

Time (CST) Temp. Windchill Dew Point Humidity Pressure Visibility Wind Dir Wind Speed Gust Speed Precip Events Conditions
12:10 AM 33.3 °F 24.1 °F 23.5 °F 68% 30.04 in 10.0 mi NW 12.7 mph 19.6 mph N/A   Overcast
12:30 AM 33.1 °F 24.9 °F 23.9 °F 69% 30.04 in 10.0 mi NW 10.4 mph 18.4 mph N/A   Overcast
12:50 AM 32.9 °F 22.4 °F 23.7 °F 69% 30.04 in 10.0 mi NW 16.1 mph 21.9 mph N/A   Overcast
1:10 AM 32.2 °F 22.3 °F 23.5 °F 70% 30.03 in 10.0 mi NW 13.8 mph 20.7 mph N/A   Overcast
1:30 AM 32.0 °F 20.5 °F 22.8 °F 69% 30.04 in 10.0 mi NW 18.4 mph 26.5 mph N/A   Overcast
1:50 AM 31.8 °F 20.2 °F 22.8 °F 69% 30.04 in 10.0 mi NW 18.4 mph 26.5 mph N/A   Overcast
2:10 AM 31.1 °F 20.1 °F 23.2 °F 72% 30.04 in 10.0 mi NW 16.1 mph 19.6 mph N/A   Overcast
2:30 AM 30.9 °F 19.8 °F 23.0 °F 72% 30.05 in 10.0 mi NNW 16.1 mph 23.0 mph N/A   Overcast
2:50 AM 30.2 °F 18.5 °F 22.3 °F 72% 30.06 in 10.0 mi NW 17.3 mph 26.5 mph N/A   Overcast
3:10 AM 29.5 °F 19.3 °F 21.7 °F 73% 30.05 in 10.0 mi NW 12.7 mph 19.6 mph N/A   Overcast
3:30 AM 29.5 °F 18.4 °F 22.1 °F 74% 30.05 in 10.0 mi NW 15.0 mph 21.9 mph N/A   Overcast
3:50 AM 29.1 °F 19.4 °F 21.7 °F 74% 30.05 in 10.0 mi NW 11.5 mph - N/A   Overcast
4:10 AM 28.9 °F 18.2 °F 21.4 °F 73% 30.06 in 10.0 mi NW 13.8 mph 17.3 mph N/A   Overcast
4:30 AM 28.8 °F 18.4 °F 21.2 °F 73% 30.06 in 10.0 mi NW 12.7 mph - N/A   Overcast
4:50 AM 28.4 °F 18.5 °F 21.4 °F 75% 30.05 in 10.0 mi NW 11.5 mph - N/A   Overcast
5:10 AM 28.4 °F 18.5 °F 21.0 °F 74% 30.05 in 10.0 mi NNW 11.5 mph 17.3 mph N/A   Overcast
5:30 AM 28.2 °F 16.8 °F 20.5 °F 73% 30.05 in 10.0 mi NW 15.0 mph 21.9 mph N/A   Overcast
5:50 AM 27.9 °F 17.3 °F 20.3 °F 73% 30.05 in 10.0 mi NNW 12.7 mph 21.9 mph N/A   Overcast
6:10 AM 27.9 °F 18.4 °F 20.1 °F 73% 30.05 in 10.0 mi NW 10.4 mph - N/A   Overcast
6:30 AM 27.1 °F 13.8 °F 19.2 °F 72% 30.07 in 10.0 mi NW 19.6 mph 24.2 mph N/A   Overcast
6:50 AM 26.1 °F 11.3 °F 17.1 °F 69% 30.08 in 10.0 mi NW 23.0 mph 28.8 mph N/A   Overcast
7:10 AM 24.8 °F 10.0 °F 13.5 °F 62% 30.09 in 10.0 mi NW 21.9 mph 29.9 mph N/A   Overcast
7:30 AM 23.9 °F 9.1 °F 12.7 °F 62% 30.10 in 10.0 mi NW 20.7 mph 28.8 mph N/A   Overcast
7:50 AM 23.9 °F 11.7 °F 12.9 °F 63% 30.12 in 10.0 mi NW 13.8 mph 26.5 mph N/A   Overcast
8:10 AM 23.4 °F 10.1 °F 12.6 °F 63% 30.12 in 10.0 mi NW 16.1 mph 23.0 mph N/A   Mostly Cloudy
8:30 AM 23.0 °F 8.0 °F 12.4 °F 64% 30.13 in 10.0 mi NW 20.7 mph 26.5 mph N/A   Mostly Cloudy
8:51 AM 22.6 °F 6.8 °F 9.5 °F 57% 30.13 in 10.0 mi NW 23.0 mph 33.4 mph N/A   Scattered Clouds
9:10 AM 22.1 °F 5.1 °F 9.0 °F 57% 30.14 in 10.0 mi NW 26.5 mph 31.1 mph N/A   Clear
9:30 AM 21.9 °F 5.8 °F 5.0 °F 48% 30.15 in 10.0 mi NW 23.0 mph 32.2 mph N/A   Clear
9:50 AM 21.9 °F 5.8 °F 4.3 °F 47% 30.15 in 10.0 mi NNW 23.0 mph 29.9 mph N/A   Clear
10:10 AM 21.9 °F 6.2 °F 4.8 °F 48% 30.15 in 10.0 mi NW 21.9 mph 27.6 mph N/A   Clear
10:30 AM 21.9 °F 6.5 °F 4.6 °F 48% 30.16 in 10.0 mi NNW 20.7 mph 27.6 mph N/A   Clear
10:50 AM 21.6 °F 5.3 °F 4.3 °F 47% 30.16 in 10.0 mi NNW 23.0 mph 29.9 mph N/A   Clear
11:10 AM 21.6 °F 6.1 °F 3.2 °F 45% 30.17 in 10.0 mi NNW 20.7 mph 31.1 mph N/A   Clear
11:30 AM 21.9 °F 6.5 °F 2.5 °F 43% 30.16 in 10.0 mi NNW 20.7 mph 28.8 mph N/A   Clear
11:50 AM 22.1 °F 6.4 °F 1.4 °F 41% 30.15 in 10.0 mi NNW 21.9 mph 31.1 mph N/A   Clear
12:10 PM 22.1 °F 8.0 °F 3.4 °F 45% 30.16 in 10.0 mi NNW 17.3 mph 26.5 mph N/A   Clear
12:30 PM 22.8 °F 7.7 °F 5.0 °F 47% 30.16 in 10.0 mi NW 20.7 mph 28.8 mph N/A   Scattered Clouds
12:50 PM 22.3 °F 6.6 °F 4.3 °F 46% 30.16 in 10.0 mi NNW 21.9 mph 29.9 mph N/A   Mostly Cloudy
1:10 PM 21.2 °F 6.8 °F 5.0 °F 50% 30.16 in 10.0 mi NNW 17.3 mph 28.8 mph N/A   Scattered Clouds
1:30 PM 22.1 °F 6.0 °F 4.5 °F 47% 30.16 in 10.0 mi NW 23.0 mph 28.8 mph N/A   Mostly Cloudy
1:50 PM 21.4 °F 5.8 °F 3.4 °F 46% 30.16 in 10.0 mi NNW 20.7 mph 29.9 mph N/A   Scattered Clouds
2:10 PM 21.6 °F 6.1 °F 3.0 °F 45% 30.16 in 10.0 mi NNW 20.7 mph 34.5 mph N/A   Scattered Clouds
2:30 PM 21.6 °F 5.3 °F 3.7 °F 46% 30.16 in 10.0 mi NNW 23.0 mph 29.9 mph N/A   Clear
2:50 PM 21.0 °F 5.0 °F 3.7 °F 47% 30.17 in 10.0 mi NNW 21.9 mph 27.6 mph N/A   Clear
3:10 PM 20.3 °F 4.0 °F 4.8 °F 51% 30.17 in 10.0 mi NNW 21.9 mph 28.8 mph N/A   Mostly Cloudy
3:30 PM 19.9 °F 6.2 °F 4.5 °F 51% 30.18 in 10.0 mi NW 15.0 mph 24.2 mph N/A   Mostly Cloudy
3:50 PM 19.9 °F 5.7 °F 4.5 °F 51% 30.19 in 10.0 mi North 16.1 mph 24.2 mph N/A   Scattered Clouds
4:10 PM 19.4 °F 6.0 °F 4.1 °F 52% 30.21 in 10.0 mi NNW 13.8 mph 24.2 mph N/A   Scattered Clouds
4:30 PM 19.2 °F 4.3 °F 4.1 °F 52% 30.21 in 10.0 mi NNW 17.3 mph 25.3 mph N/A   Scattered Clouds
4:50 PM 18.3 °F 5.9 °F 4.3 °F 54% 30.22 in 10.0 mi NNW 11.5 mph 18.4 mph N/A   Scattered Clouds
5:10 PM 18.0 °F 3.6 °F 4.5 °F 56% 30.22 in 10.0 mi NNW 15.0 mph - N/A   Clear
5:30 PM 17.6 °F 5.0 °F 4.8 °F 57% 30.23 in 10.0 mi NNW 11.5 mph - N/A   Clear
5:49 PM 17.2 °F 6.0 °F 5.4 °F 60% 30.24 in 10.0 mi NNW 9.2 mph - N/A   Scattered Clouds
6:10 PM 17.2 °F 3.9 °F 5.0 °F 59% 30.25 in 10.0 mi NNW 12.7 mph - N/A   Scattered Clouds
6:30 PM 16.9 °F 4.1 °F 5.0 °F 60% 30.25 in 10.0 mi NNW 11.5 mph - N/A   Clear
6:50 PM 16.7 °F 3.2 °F 5.2 °F 61% 30.25 in 10.0 mi NNW 12.7 mph - N/A   Clear
7:10 PM 16.5 °F 3.6 °F 5.4 °F 62% 30.26 in 10.0 mi North 11.5 mph 18.4 mph N/A   Clear
7:30 PM 16.0 °F 2.3 °F 5.4 °F 63% 30.26 in 10.0 mi NNW 12.7 mph - N/A   Clear
7:50 PM 15.8 °F 3.4 °F 5.4 °F 63% 30.26 in 10.0 mi North 10.4 mph - N/A   Clear
8:10 PM 15.6 °F 4.0 °F 5.4 °F 64% 30.27 in 10.0 mi North 9.2 mph - N/A   Clear
8:29 PM 15.3 °F 3.5 °F 5.5 °F 65% 30.27 in 10.0 mi North 9.2 mph - N/A   Clear
8:50 PM 14.9 °F 3.1 °F 5.4 °F 66% 30.27 in 10.0 mi NNW 9.2 mph - N/A   Clear
9:10 PM 14.9 °F 4.0 °F 5.7 °F 67% 30.27 in 10.0 mi North 8.1 mph - N/A   Mostly Cloudy
9:30 PM 14.5 °F 1.9 °F 5.7 °F 68% 30.27 in 10.0 mi NNW 10.4 mph - N/A   Scattered Clouds
9:50 PM 14.5 °F 1.9 °F 5.9 °F 69% 30.28 in 10.0 mi North 10.4 mph - N/A   Clear
10:10 PM 14.4 °F 0.9 °F 5.9 °F 69% 30.27 in 10.0 mi North 11.5 mph - N/A   Clear
10:30 PM 15.3 °F 2.8 °F 6.8 °F 69% 30.28 in 10.0 mi North 10.4 mph 19.6 mph N/A   Mostly Cloudy
10:50 PM 15.3 °F 0.8 °F 6.6 °F 69% 30.28 in 10.0 mi North 13.8 mph 20.7 mph N/A   Overcast
11:10 PM 14.4 °F 2.4 °F 6.6 °F 71% 30.28 in 10.0 mi North 9.2 mph - N/A   Scattered Clouds
11:30 PM 13.8 °F 1.8 °F 6.6 °F 73% 30.28 in 10.0 mi North 9.2 mph - N/A   Clear
11:50 PM 13.6 °F 2.5 °F 5.9 °F 71% 30.28 in 10.0 mi North 8.1 mph - N/A   Clear